Regional Weather Roundup
Issued by NWS

Home | Current Version | Previous Version | Text Only | Print | Product List | Glossary On
Versions: 1 2 3 4 5 6 7 8 9 10 11 12 13 14 15 16 17 18 19 20 21 22 23 24 25 26 27
000
ASUS45 KBOI 241310
RWRID

IDAHO REGIONAL WEATHER ROUNDUP
NATIONAL WEATHER SERVICE BOISE ID
700 AM MDT SUN SEP 24 2017

NOTE: "FAIR" INDICATES FEW OR NO CLOUDS BELOW 12000 FEET
WITH NO SIGNIFICANT WEATHER AND/OR OBSTRUCTIONS TO VISIBILITY

IDZ012-014-241400-
SOUTHWEST IDAHO


CITY           SKY/WX    TMP DP  RH WIND       PRES   REMARKS
BOISE          CLEAR     37  32  82 CALM      30.03S
CALDWELL       CLEAR     39  35  86 W9        30.05R WCI  33
MOUNTAIN HOME  CLEAR     35  35 100 NW7       30.03R WCI  29
$$

IDZ016-017-241400-
SOUTHCENTRAL IDAHO


CITY           SKY/WX    TMP DP  RH WIND       PRES   REMARKS
BURLEY         PTCLDY    40  33  76 W7        30.00R
JEROME         CLEAR     36  34  92 S5        30.02S WCI  32
TWIN FALLS     CLEAR     36  31  82 S10       30.03R WCI  28
$$

IDZ019>023-241400-
SOUTHEAST IDAHO


CITY           SKY/WX    TMP DP  RH WIND       PRES   REMARKS
IDAHO FALLS    CLOUDY    33  29  85 N3        29.99S
POCATELLO      MOCLDY    37  32  82 CALM      30.00R
REXBURG        CLEAR     34  28  79 CALM      29.98R
$$

IDZ006-010-011-018-031-032-241400-
CENTRAL IDAHO MOUNTAINS


CITY           SKY/WX    TMP DP  RH WIND       PRES   REMARKS
MCCALL         CLEAR     36  29  75 N6        30.06R WCI  31
HAILEY         CLEAR     34  27  75 NW9       30.03F WCI  26
STANLEY          N/A     25  24  96 CALM      30.09S
SALMON         CLEAR     28  26  92 CALM      30.12S
CHALLIS        CLOUDY    31  28  89 SE6       30.08R WCI  25
$$

IDZ002-004-006-007-026-241400-
NORTHERN IDAHO


CITY           SKY/WX    TMP DP  RH WIND       PRES   REMARKS
LEWISTON       CLOUDY    48  42  80 SE5       30.12S
LOWELL           N/A     39  36  89 CALM      30.20R
COEUR D`ALENE  PTCLDY    48  45  89 S7        30.11S
MULLAN PASS    CLOUDY    36  33  89 NW5       30.11S WCI  32
$$




USA.gov is the U.S. government's official web portal to all federal, state and local government web resources and services.